GW0766 Weather Reports


Display with metric or nautical units.
time (UTC)temp
F
wind
direction
speed
MPH
gust
MPH
rain 1hr
in
rain 24hr
in
rain mn
in
humidity
%
barometer
mb
20260506211130 61 346 1.0 5.0 0.00 0.00 0.00 93 990.4
20260506205929 59 191 1.0 4.0 0.02 0.09 0.09 89 1010.9
20260506191048 61 82 0.0 1.0 0.00 0.00 0.00 91 990.9
20260506185916 60 180 0.0 2.0 0.00 0.08 0.08 90 1010.5
20260506171244 63 50 2.0 4.0 0.00 0.00 0.00 87 990.5
20260506165928 63 186 2.0 6.0 0.00 0.06 0.06 79 1010.1
20260506155923 67 162 3.0 9.0 0.00 0.06 0.06 68 1010.1
20260506151522 65 138 1.0 5.0 0.00 0.00 0.00 83 990.7
20260506141101 67 122 3.0 7.0 0.00 0.00 0.00 80 990.9
20260506135926 69 177 8.0 14.0 0.00 0.06 0.06 65 1009.7
20260506121131 68 78 3.0 8.0 0.00 0.00 0.00 79 991.4
20260506115932 71 164 8.0 20.0 0.00 0.06 0.06 53 1010.4
20260506111024 67 154 3.0 8.0 0.00 0.00 0.00 79 991.4
20260506095926 68 174 2.0 8.0 0.00 0.06 0.06 70 1010.6
20260506091532 66 67 2.0 6.0 0.00 0.00 0.00 80 991.8
20260506081038 65 88 2.0 6.0 0.00 0.00 0.00 81 991.3
20260506061547 61 263 0.0 0.0 0.00 0.00 0.00 86 991.7
20260506051115 60 307 0.0 1.0 0.00 0.00 0.00 86 990.9
20260506035913 56 302 0.0 2.0 0.00 0.14 0.02 87 1010.5
20260506031630 59 294 1.0 3.0 0.00 0.00 0.00 78 990.9
20260506015916 57 88 1.0 3.0 0.02 0.17 0.02 87 1011.2
20260506011537 60 293 2.0 7.0 0.00 0.00 0.00 88 991.4
20260506005916 60 111 2.0 6.0 0.00 0.15 0.00 73 1011.0
20260506001045 60 327 1.0 4.0 0.00 0.00 0.00 88 991.9
20260505221239 60 313 0.0 1.0 0.00 0.00 0.00 90 992.4
20260505215953 61 146 0.0 3.0 0.00 0.15 0.00 70 1012.2